Location: *
(33.8649°S, 62.1526°E)
Time: 04:16:58
(UTC+00:00)

CZ-2C R/B - Pass Details

Date: 17 January 2021
Orbit: 643 x 36392 km, 87.2° (Epoch: 25 February)

Event Time Altitude Azimuth Distance (km) Brightness Sun altitude
Exits shadow 18:05:16 82° 75° (ENE) 986 3.3 -28.9°
Maximum altitude 18:05:20 82° 89° (E) 979 3.3 -28.9°
Drops below altitude 10° 18:09:06 10° 176° (S) 2,146 6.0 -29.3°
Sets 18:10:42 0° 177° (S) 2,990 6.9 -29.5°
